Regional Weather Roundup
Issued by NWS

Home | Current Version | Previous Version | Text Only | Print | Product List | Glossary Off
Versions: 1 2 3 4 5 6 7 8 9 10 11 12 13 14 15 16 17 18 19 20 21 22 23 24 25 26 27 28 29 30 31 32 33 34 35 36 37 38 39 40 41 42 43 44 45 46 47 48 49 50

852
ASUS45 KTFX 230710
RWRMT
MONTANA REGIONAL WEATHER ROUNDUP
NATIONAL WEATHER SERVICE GREAT FALLS MT
1200 AM MST MON JAN 23 2017

NOTE: "FAIR" INDICATES FEW OR NO CLOUDS BELOW 12000 FEET WITH NO
SIGNIFICANT WEATHER AND/OR OBSTRUCTIONS TO VISIBILITY.

MTZ001>007-043-230800-
WEST OF THE DIVIDE

CITY           SKY/WX    TMP DP  RH WIND       PRES   REMARKS
KALISPELL      SNOW      26  25  96 N3        29.63S VSB 1/2
MISSOULA       LGT SNOW  30  30 100 S8        29.62F FOG     WCI  22
BUTTE          CLOUDY    17  13  84 S7        29.60  WCI   8
MULLAN PASS    LGT SNOW  25  22  88 VRB5      29.51S FOG
ANACONDA         N/A     25  18  74 SW9       29.60R WCI  15
DEER LODGE       N/A     25  19  80 S9        29.61F WCI  15
EUREKA           N/A     25  21  86 CALM      29.67R
HAMILTON         N/A     27  27 100 MISG        N/A
RONAN            N/A     25  23  91 CALM      29.68R VSB 1
$$

MTZ008-052>055-230800-
SOUTHWEST MONTANA

CITY           SKY/WX    TMP DP  RH WIND       PRES   REMARKS
BOZEMAN        CLOUDY    25  19  78 SW9       29.63F WCI  15
DILLON         CLOUDY   N/A N/A N/A SE9       29.60F
W YELLOWSTONE  FLURRIES  23  21  93 CALM      29.66S
ENNIS          PTCLDY    28  19  69 S14G20    29.65S WCI  17
TWIN BRIDGES     N/A     19  11  71 SE5       29.66S
$$

MTZ009-010-012-014-046-048-049-054-230800-
EAST SLOPES AND CENTRAL MONTANA

CITY           SKY/WX    TMP DP  RH WIND       PRES   REMARKS
CUT BANK       LGT SNOW  23  22  96 N8        29.71S FOG     WCI  14
GREAT FALLS    LGT SNOW  24  22  91 NE5       29.69F FOG
MALMSTROM AFB  LGT SNOW  23  25 100 CALM      29.71F VSB 5/8
HELENA         LGT SNOW  21  18  88 N5        29.65S FOG
AUGUSTA        CLOUDY    21  21  99 NE6       29.67S WCI  13
BOWMANS CRNR   SNOWSHWR  20  19  97 NE6       29.66S VSB 5/8 WCI  12
CHOTEAU          N/A     23  21  93 N7        29.71F FOG     WCI  15
CONRAD           N/A     24  24 100 CALM      29.76S
POWER          SNOW      22  21  96 N6        29.69F VSB 1/2 WCI  14
RAYNESFORD     FOG       22  22  97 NW6       29.68F VSB 3/8 WCI  15
ULM            FLURRIES  24  23  98 MISG      29.70F
$$

MTZ011-013-016-021-045-047-050-051-230800-
NORTH CENTRAL MONTANA

CITY           SKY/WX    TMP DP  RH WIND       PRES   REMARKS
HAVRE          CLOUDY    27  26  96 E6        29.75F WCI  20
LEWISTOWN      CLOUDY    20  18  92 CALM      29.64F FOG
CHINOOK          N/A     28  27  93 NE5       29.76F
DENTON         FOG       24  23  96 N10       29.65F VSB 1/8 WCI  13
FORT BENTON      N/A     27  25  93 MISG      29.75F
GEYSER         FOG       23  22  96 NW5       29.65F VSB 3/8
GRASS RANGE    FOG       23  23  99 CALM      29.63F VSB 5/8
JUDITH GAP     MOCLDY    24  19  81 SW10      29.62F WCI  13
ROY            FOG       23  23  98 MISG      29.66F VSB 5/8
STANFORD       FOG       22  21  99 N9        29.64F VSB 1/2 WCI  11
WINIFRED       MOCLDY    24  23  99 E8        29.66S FOG     WCI  15
$$

MTZ017>020-022>027-061-062-230800-
NORTHEAST MONTANA

CITY           SKY/WX    TMP DP  RH WIND       PRES   REMARKS
GLASGOW        CLOUDY    28  24  85 S6        29.77F WCI  22
JORDAN           N/A     27  24  89 E7        29.74F WCI  19
SIDNEY         CLOUDY    29  24  82 W7        29.81S WCI  22
WOLF POINT     CLOUDY    30  25  81 SW5       29.80S
PLENTYWOOD       N/A    N/A N/A N/A NW5       29.77R
POPLAR           N/A     28  25  86 W5        29.80S
$$

MTZ028>42-056>058-230800-
SOUTHCENTRAL AND SOUTHEAST MONTANA

CITY           SKY/WX    TMP DP  RH WIND       PRES   REMARKS
BAKER          CLOUDY    22  20  92 E7        29.75F FOG     WCI  13
BILLINGS       CLOUDY    22  19  89 CALM      29.67R
LIVINGSTON     CLOUDY    27  18  69 CALM      29.62F
MILES CITY     FOG       23  21  92 E6        29.74F VSB 1/2 WCI  16
BIG TIMBER     CLOUDY    27  19  74 CALM      29.65F
FORSYTH          N/A     19  19 100 E7        29.72F VSB 1/4 WCI  10
HARLOWTON      MOCLDY    23  20  88 CALM      29.65F
LAUREL           N/A     21  13  71 CALM      29.67F
ROUNDUP          N/A     21  16  81 N5        29.63F VSB 0
$$

REGIONAL REPORTS...DAKOTAS

CITY           SKY/WX    TMP DP  RH WIND       PRES   REMARKS
WILLISTON      CLOUDY    27  23  85 SW5       29.79F
MINOT          CLOUDY    29  25  85 W9        29.76F WCI  20
DICKINSON      CLOUDY    25  20  81 NW6       29.77F WCI  18
BEACH          CLOUDY    25  23  93 CALM      29.81F
CROSBY         CLOUDY    25  23  93 W7        29.79S WCI  17
TIOGA          CLOUDY    25  25 100 W9        29.78S WCI  15
WATFORD CITY   CLOUDY    27  23  86 W5        29.80S
BISMARCK       CLOUDY    31  25  78 W8        29.83S WCI  23
GRAND FORKS    CLOUDY    33  28  81 W10       29.77S WCI  25
FARGO          CLOUDY    34  30  85 W5        29.79S
BUFFALO SD       N/A     20  16  84 SE5       29.70F
RAPID CITY     CLEAR     20  18  92 CALM      29.76F
$$

REGIONAL REPORTS...WYOMING/IDAHO/WASHINGTON

CITY           SKY/WX    TMP DP  RH WIND       PRES   REMARKS
GILLETTE       CLOUDY    27  20  75 SE10      29.66F WCI  17
SHERIDAN       CLOUDY    19  15  84 SE9       29.65F WCI   8
BUFFALO WY     CLOUDY    26  13  57 S3        29.63S
CODY           CLOUDY    17  12  80 NE3       29.64F
YELLOWSTONE LA   N/A     15  14  95 CALM      29.66F
IDAHO FALLS    LGT SNOW  29  29 100 N6        29.68F FOG     WCI  23
SALMON         CLOUDY    10   9  92 N6        29.63F WCI   1
BOISE          PTCLDY    31  27  85 CALM      29.62F
SPOKANE        LGT SNOW  32  32 100 SW7       29.62R VSB 1   WCI  26
$$

REGIONAL REPORTS...ALBERTA

CITY           SKY/WX    TMP DP  RH WIND       PRES   REMARKS
EDMONTON       CLOUDY    14   9  79 NE2       29.89S
CALGARY        LGT SNOW  21  19  93 CALM      29.76F FOG
LETHBRIDGE     CLOUDY    23 N/A N/A NE6       29.77F WCI  16
MEDICINE HAT   LGT SNOW  21  19  93 W8        29.81F WCI  12
WATERTON GATE    N/A     21  19  93 E3          N/A
CARDSTON         N/A     21  21 100 NE1         N/A
MILK RIVER       N/A     23  21  93 NE7         N/A  WCI  15
$$

REGIONAL REPORTS...SASKATCHEWAN

CITY           SKY/WX    TMP DP  RH WIND       PRES   REMARKS
SWIFT CURRENT  CLOUDY    18  16  93 NW9       29.76R FOG     WCI   6
REGINA         CLOUDY    19  16  86 NW14      29.76F WCI   6
SASKATOON      FLURRIES  16  12  86 NW9       29.83S WCI   4
CYPRESS HILLS    N/A     16  12  86 NW2         N/A
VAL MARIE        N/A     25  23  93 NE7         N/A  WCI  17
$$




USA.gov is the U.S. government's official web portal to all federal, state and local government web resources and services.